Tracking 19706 objects as of 16-Jun-2019
HD Live streaming from Space Station
objects crossing your sky now

STARLINK OBJ AR

Track STARLINK OBJ AR now!
10-day predictions


NORAD ID: 44274
Int'l Code: 2019-029AR
Perigee: 541.8 km
Apogee: 548.4 km
Inclination: 53.0 °
Period: 95.4 minutes
Semi major axis: 6916 km
RCS: Unknown
Launch date: May 24, 2019
Source: United States (US)
Launch site: AIR FORCE EASTERN TEST RANGE (AFETR)
aabbcc
Your satellite tracking list
Your tracking list is empty




NASA's NSSDC Master Catalog

Two Line Element Set (TLE):
1 44274U 19029AR  19166.38319900 -.00973308  00000-0 -65338-1 0  9996
2 44274  52.9988  71.7568 0004761  56.8020 303.3426 15.09412740  3497
Source of the keplerian elements: AFSPC